Location: Ceske Budejovice
(48.9830°N, 14.4670°E)
Time: 15:05:40
(UTC+01:00)

ISS - Pass Details

Date: 29 November 2019
Orbit: 411 x 421 km, 51.6° (Epoch: 09 December)

Event Time Altitude Azimuth Distance (km) Brightness Sun altitude
Rises 17:36:26 0° 259° (WSW) 2,351 2.0 -13.8°
Reaches altitude 10° 17:38:31 10° 262° (W) 1,492 0.4 -14.2°
Maximum altitude 17:41:51 68° 345° (NNW) 454 -3.7 -14.7°
Enters shadow 17:43:14 32° 60° (ENE) 744 -3.1 -14.9°
